Regional Weather Roundup
Issued by NWS

Home | Current Version | Previous Version | Text Only | Print | Product List | Glossary On
Versions: 1 2 3 4 5 6 7 8 9 10 11 12 13 14 15 16 17 18 19 20 21 22 23 24 25 26 27 28 29 30 31 32 33 34 35 36 37 38 39 40 41 42 43 44 45 46 47 48 49 50
000
ASUS43 KMKX 211500
RWRWI

WISCONSIN REGIONAL WEATHER ROUNDUP
NATIONAL WEATHER SERVICE MILWAUKEE/SULLIVAN WI
1000 AM CDT THU AUG 21 2014

NOTE: "FAIR" INDICATES FEW OR NO CLOUDS BELOW 12,000 FEET WITH NO
SIGNIFICANT WEATHER AND/OR OBSTRUCTIONS TO VISIBILITY.

WIZ001-002-006>008-014>016-023>028-211600-
NORTHWEST WISCONSIN

CITY           SKY/WX    TMP DP  RH WIND       PRES   REMARKS
SUPERIOR ARPT  CLOUDY    61  61 100 NE9       29.87F
ASHLAND        CLOUDY    66  62  87 NE12      29.88F
HAYWARD        LGT RAIN  64  63  96 VRB5      29.88F
SIREN          PTSUNNY   66  65  96 SE5       29.83S
RICE LAKE      LGT RAIN  66  64  95 SE8       29.88S
LADYSMITH      CLOUDY    65  63  94 S5        29.94R
EAU CLAIRE     LGT RAIN  68  68 100 E8        29.84R
MENOMONIE      CLOUDY    69  68  98 CALM      29.83R
NEW RICHMOND   CLOUDY    70  69  97 E7        29.81F
OSCEOLA        PTSUNNY   70  70  99 E10G16    29.82F
$$

WIZ003>005-009-010-017-018-211600-
NORTH CENTRAL WISCONSIN

CITY           SKY/WX    TMP DP  RH WIND       PRES   REMARKS
WOODRUFF       CLOUDY    67  64  91 SE5       29.96S
RHINELANDER    CLOUDY    65  62  90 E7        29.97S
EAGLE RIVER    CLOUDY    66  61  85 SE6       29.96S
LAND O LAKES   CLOUDY    65  60  84 S5        29.98F
PHILLIPS       CLOUDY    63  62  96 SE6       29.92R
TOMAHAWK       CLOUDY    63  62  97 SE3       29.95F FOG
MEDFORD        DRIZZLE   63  62  98 SE5       29.94R
MERRILL        CLOUDY    65  64  99 SE6       29.95S FOG
$$

WIZ029-030-035-036-043>047-211600-
CENTRAL WISCONSIN

CITY           SKY/WX    TMP DP  RH WIND       PRES   REMARKS
WAUSAU         LGT RAIN  64  63  96 SE8       29.93R FOG
MOSINEE        CLOUDY    63  63 100 E6        29.94F VSB 3/4
MARSHFIELD     TSTM      64  63  96 S7        29.95R VSB 1/2
STEVENS POINT  CLOUDY    63  63  98 SE6       29.94S FOG
WAUPACA        CLOUDY    68  66  93 E5        29.94F
WAUTOMA        LGT RAIN  66  64  94 CALM      29.94S FOG
WISC RAPIDS    TSTM      65  64  97 VRB3      29.94S FOG
CAMP DOUGLAS   TSTM      66  66 100 SW8       29.95R FOG
$$

WIZ011>013-019>022-031-037>040-048>050-211600-
NORTHEAST WISCONSIN

CITY           SKY/WX    TMP DP  RH WIND       PRES   REMARKS
ANTIGO         CLOUDY    64  63  98 SE8       29.96F FOG
STURGEON BAY   PTSUNNY   66  63  88 SE7       29.98S
GREEN BAY      CLOUDY    70  63  78 SE7       29.96S
MANITOWOC      NOT AVBL
APPLETON       CLOUDY    68  63  83 E8        29.96S
CLINTONVILLE   CLOUDY    66  63  88 E3        29.95F
OSHKOSH        CLOUDY    69  65  86 SE5       29.94S
$$

WIZ032>034-041-042-053>061-211600-
SOUTHWEST WISCONSIN

CITY           SKY/WX    TMP DP  RH WIND       PRES   REMARKS
LA CROSSE      RAIN      71  68  90 S13       29.90S FOG
SPARTA         RAIN      67  66  96 SE3       29.94R
VIROQUA        CLOUDY    67  67 100 SW5G16    29.98R VSB 1/4
BOSCOBEL       TSTM      71  69  93 CALM      29.93R FOG
PRAIRIE DU CHI RAIN      71  67  89 CALM      29.93R
PLATTEVILLE    FAIR      71  69  94 SE8       29.92F
$$

WIZ056-057-062-063-064-067-068-211600-
SOUTH CENTRAL WISCONSIN

CITY           SKY/WX    TMP DP  RH WIND       PRES   REMARKS
BARABOO/DELLS  CLOUDY    71  65  83 E5        29.93R
LONE ROCK      TSTM      74  68  81 E5        29.91S
WATERTOWN      CLOUDY    69  68  96 CALM      29.94R
MADISON        LGT RAIN  71  68  90 S8        29.93S
MIDDLETON      CLOUDY    71  70  97 S6        29.93F
MONROE         CLOUDY    70  68  94 S8        29.92F
JANESVILLE     SUNNY     70  68  94 CALM      29.94R
$$

WIZ051-052-058>065-066-070>072-211600-
SOUTHEAST WISCONSIN

CITY           SKY/WX    TMP DP  RH WIND       PRES   REMARKS
MILWAUKEE      CLOUDY    73  67  81 NE9       29.95S
WAUKESHA       MOSUNNY   70  64  83 SE5       29.95F
MILWAUKEE/TIMM MOSUNNY   73  64  73 E3        29.95F
RACINE         CLOUDY    75  68  78 E5        29.96F
BURLINGTON     CLOUDY    71  68  91 CALM      29.94S
KENOSHA        CLOUDY    76  68  76 S5        29.94F
FOND DU LAC    CLOUDY    70  65  84 SE5       29.94S
SHEBOYGAN      CLOUDY    70  63  78 E7        29.97S
WEST BEND      CLOUDY    68  64  88 CALM      29.97R
JUNEAU         CLOUDY    68  42  38 SE3       29.95S
$$

LSZ147-162-211600-
LAKE SUPERIOR

STATION/POSITION TIME  TEMP    WIND        PRES    WAVE
                       AIR SEA DIR/SP/G            HT/PER
                 (UTC) (F)     (DEG/KT/KT) (MB)    (FT/S)
W MID LAKE BUOY  1350   57 58   80/ 10/ 12 1014.2R   0
PORT WING        1440   64      30/ 13/ 15 1011.9F
SAXON HARBOR     1440   65        CALM     1012.9F
$$

LMZ867-665-643>646-211600-
LAKE MICHIGAN

STATION/POSITION TIME  TEMP    WIND        PRES    WAVE
                       AIR SEA DIR/SP/G            HT/PER
                 (UTC) (F)     (DEG/KT/KT) (MB)    (FT/S)
N MID LAKE BUOY  1350   63 64  130/  6/  6 1015.5R   0
NORTHPORT PIER   1400   66     130/  4/  5 1015.6R
SISTER BAY       1411   71     140/  5/  6   N/A
ALGOMA LAKESHORE 1353             CALM       N/A
KEWAUNEE LAKESHO 1400   66     100/  4/  6 1014.4R
SHEBOYGAN LAKESH 1400   66 66  100/  5/  5 1014.8F
ATWATER BUOY     1400   69     130/  8/  8 1015.4F
MILWAUKEE LAKESH 1400   69     100/  5/  5   N/A
S MID LAKE BUOY  1350   69 68  190/  4/  6 1015.3R   0
KENOSHA   LAKESH 1400   74     240/  7/ 10 1013.9F
$$

TC  - TEMPERATURE IN CELSIUS
VSB - VISIBILITY IN STATUTE MILES
WCI - WIND CHILL INDEX
HX  - HEAT INDEX




USA.gov is the U.S. government's official web portal to all federal, state and local government web resources and services.